Voltar ao catálogo

STARLINK-38008

AtivoComunicaçõesSSO
NORAD 69724·PAYLOAD·🇺🇸 United States

Lançado Jun 28, 2026 de Vandenberg Space Force Base

Loading…

Próximas Passagens (próximas 24 horas)

TLE

AtualizadoSource: CelesTrak SupGP

Época: Sep 14, 2026, 23:25 UTC

1 69724C 26147W   26257.97618056  .00044089  00000+0  13687-2 0  2570
2 69724  97.2835 294.4709 0000948  90.0694 165.3595 15.33415729    13

Acompanhe STARLINK-38008 em tempo real com AllMySat

Download on the App Store